Location: Unspecified
(49.8214°N, 0.0000°E)
Time: 02:35:38
(UTC+00:00)

deb Oscar - Visible Passes

Search period start: 04 April 2026 00:00
Search period end: 14 April 2026 00:00
Orbit: 1023 x 1157 km, 90.5° (Epoch: 29 March)

Date Brightness Start Highest point End Pass type
(mag) Time Alt. Az. Time Alt. Az. Time Alt. Az.
4 Apr ? 19:18:41 10° SSE 19:25:38 63° E 19:32:28 10° N visible
4 Apr ? 21:06:52 10° SW 21:12:53 30° WNW 21:18:50 10° NNW visible
5 Apr ? 20:18:04 10° SSW 20:24:58 55° W 20:31:46 10° N visible
5 Apr ? 22:11:32 10° W 22:13:24 11° WNW 22:15:15 10° NW visible
6 Apr ? 19:30:19 10° S 19:37:22 82° E 19:44:18 10° N visible
6 Apr ? 21:19:40 10° WSW 21:24:57 22° WNW 21:30:12 10° NNW visible
7 Apr ? 20:30:18 10° SSW 20:36:54 42° W 20:43:23 10° NNW visible
8 Apr ? 19:42:08 10° S 19:49:10 77° W 19:56:05 10° N visible
8 Apr ? 21:32:52 10° WSW 21:37:06 17° WNW 21:41:18 10° NNW visible
9 Apr ? 20:42:46 10° SW 20:48:53 32° W 20:54:55 10° NNW visible
10 Apr ? 19:54:06 10° SSW 20:01:01 59° W 20:07:46 10° N visible
10 Apr ? 21:46:51 10° W 21:49:19 12° WNW 21:51:47 10° NW visible
11 Apr ? 20:55:30 10° SW 21:00:56 24° WNW 21:06:18 10° NNW visible
12 Apr ? 20:06:18 10° SSW 20:12:55 45° W 20:19:25 10° NNW visible
13 Apr ? 19:18:13 10° S 19:25:13 83° W 19:32:03 10° N visible
13 Apr ? 21:08:35 10° WSW 21:13:03 18° WNW 21:17:28 10° NNW visible
